Time,TemperatureF,DewpointF,PressureIn,WindDirection,WindDirectionDegrees,WindSpeedMPH,WindSpeedGustMPH,Humidity,HourlyPrecipIn,Conditions,Clouds,dailyrainin,SoftwareType,DateUTC
2013-09-13 00:01:00,67.0,66.0,29.21,SW,225,1.4,1.4,99,0.00,,,0.00,Rainwise IP-100,2013-09-13 04:01:00,
2013-09-13 00:02:00,66.9,66.0,29.21,SW,225,1.2,1.2,99,0.00,,,0.00,Rainwise IP-100,2013-09-13 04:02:00,
2013-09-13 00:05:00,66.9,66.0,29.20,SW,225,0.0,1.0,99,0.00,,,0.00,Rainwise IP-100,2013-09-13 04:05:00,
2013-09-13 00:10:00,66.9,66.0,29.20,SW,225,0.0,0.0,99,0.00,,,0.00,Rainwise IP-100,2013-09-13 04:10:00,
2013-09-13 00:15:00,66.9,66.0,29.19,SW,225,1.4,2.0,99,0.00,,,0.00,Rainwise IP-100,2013-09-13 04:15:00,
2013-09-13 00:20:00,67.0,66.0,29.19,SW,225,0.0,1.0,99,0.00,,,0.00,Rainwise IP-100,2013-09-13 04:20:00,
2013-09-13 00:25:00,67.0,66.0,29.19,SW,225,0.0,0.0,99,0.00,,,0.00,Rainwise IP-100,2013-09-13 04:25:00,
2013-09-13 00:30:00,67.0,66.0,29.20,SW,225,0.0,1.0,99,0.00,,,0.00,Rainwise IP-100,2013-09-13 04:30:00,
2013-09-13 00:35:00,67.0,66.0,29.20,SW,225,0.0,1.0,99,0.00,,,0.00,Rainwise IP-100,2013-09-13 04:35:00,
2013-09-13 00:40:00,67.0,66.0,29.20,SW,225,0.0,1.0,99,0.00,,,0.00,Rainwise IP-100,2013-09-13 04:40:00,
2013-09-13 00:45:00,67.0,66.0,29.19,SW,225,0.0,1.0,99,0.00,,,0.00,Rainwise IP-100,2013-09-13 04:45:00,
2013-09-13 00:50:00,66.9,66.0,29.20,SW,225,0.0,0.0,99,0.00,,,0.00,Rainwise IP-100,2013-09-13 04:50:00,
2013-09-13 00:56:00,66.8,66.0,29.20,SW,225,0.0,0.0,99,0.00,,,0.00,Rainwise IP-100,2013-09-13 04:56:00,
2013-09-13 01:01:00,66.8,66.0,29.20,SW,225,0.0,0.0,99,0.00,,,0.00,Rainwise IP-100,2013-09-13 05:01:00,
2013-09-13 01:06:00,66.8,66.0,29.20,SW,225,0.0,1.0,99,0.00,,,0.00,Rainwise IP-100,2013-09-13 05:06:00,
2013-09-13 01:11:00,66.7,66.0,29.19,SW,225,1.4,1.4,100,0.00,,,0.00,Rainwise IP-100,2013-09-13 05:11:00,
2013-09-13 01:16:00,66.7,66.0,29.19,SW,225,0.0,2.0,100,0.00,,,0.00,Rainwise IP-100,2013-09-13 05:16:00,
2013-09-13 01:21:00,66.6,66.0,29.19,SW,225,0.0,0.0,100,0.00,,,0.00,Rainwise IP-100,2013-09-13 05:21:00,
2013-09-13 01:26:00,66.6,66.0,29.19,SW,225,0.0,0.0,100,0.06,,,0.01,Rainwise IP-100,2013-09-13 05:26:00,
2013-09-13 01:31:00,66.6,66.0,29.19,SW,225,0.0,0.0,100,0.06,,,0.01,Rainwise IP-100,2013-09-13 05:31:00,
2013-09-13 01:36:00,66.6,66.0,29.20,SW,225,1.4,1.4,100,0.00,,,0.01,Rainwise IP-100,2013-09-13 05:36:00,
2013-09-13 01:41:00,66.6,66.0,29.20,SW,225,0.0,1.0,100,0.00,,,0.01,Rainwise IP-100,2013-09-13 05:41:00,
2013-09-13 01:46:00,66.5,66.0,29.19,SW,225,0.0,1.0,100,0.00,,,0.01,Rainwise IP-100,2013-09-13 05:46:00,
2013-09-13 01:51:00,66.6,66.0,29.19,SW,225,0.0,0.0,100,0.00,,,0.01,Rainwise IP-100,2013-09-13 05:51:00,
2013-09-13 01:56:00,66.6,66.0,29.20,SSW,202,1.2,3.0,100,0.00,,,0.01,Rainwise IP-100,2013-09-13 05:56:00,
2013-09-13 02:01:00,66.7,66.0,29.20,South,180,3.5,5.0,100,0.00,,,0.01,Rainwise IP-100,2013-09-13 06:01:00,
2013-09-13 02:06:00,66.8,66.0,29.19,SW,225,0.0,3.0,100,0.00,,,0.01,Rainwise IP-100,2013-09-13 06:06:00,
2013-09-13 02:12:00,66.8,66.0,29.19,SW,225,0.0,1.0,100,0.00,,,0.01,Rainwise IP-100,2013-09-13 06:12:00,
2013-09-13 02:17:00,66.9,67.0,29.19,SW,225,1.2,2.0,100,0.00,,,0.01,Rainwise IP-100,2013-09-13 06:17:00,
2013-09-13 02:22:00,67.0,67.0,29.19,SW,225,0.0,1.0,100,0.00,,,0.01,Rainwise IP-100,2013-09-13 06:22:00,
2013-09-13 02:27:00,66.9,67.0,29.19,SW,225,1.2,1.2,100,0.00,,,0.01,Rainwise IP-100,2013-09-13 06:27:00,
2013-09-13 02:32:00,66.9,67.0,29.18,South,180,1.4,3.0,100,0.00,,,0.01,Rainwise IP-100,2013-09-13 06:32:00,
2013-09-13 02:37:00,66.8,66.0,29.18,South,180,0.0,5.0,100,0.00,,,0.01,Rainwise IP-100,2013-09-13 06:37:00,
2013-09-13 02:42:00,66.8,66.0,29.18,South,180,1.4,1.4,100,0.00,,,0.01,Rainwise IP-100,2013-09-13 06:42:00,
2013-09-13 02:47:00,66.8,66.0,29.18,SSW,202,0.0,2.0,100,0.00,,,0.01,Rainwise IP-100,2013-09-13 06:47:00,
2013-09-13 02:52:00,66.8,66.0,29.18,WSW,247,2.3,2.3,100,0.00,,,0.01,Rainwise IP-100,2013-09-13 06:52:00,
2013-09-13 02:57:00,66.8,66.0,29.18,WSW,247,0.0,2.0,100,0.00,,,0.01,Rainwise IP-100,2013-09-13 06:57:00,
2013-09-13 03:02:00,66.8,66.0,29.18,WSW,247,0.0,1.0,100,0.00,,,0.01,Rainwise IP-100,2013-09-13 07:02:00,
2013-09-13 03:07:00,66.8,66.0,29.17,WSW,247,0.0,0.0,100,0.00,,,0.01,Rainwise IP-100,2013-09-13 07:07:00,
2013-09-13 03:12:00,66.7,66.0,29.17,WSW,247,0.0,0.0,99,0.00,,,0.01,Rainwise IP-100,2013-09-13 07:12:00,
2013-09-13 03:17:00,66.7,66.0,29.17,WSW,247,0.0,1.0,99,0.00,,,0.01,Rainwise IP-100,2013-09-13 07:17:00,
2013-09-13 03:23:00,66.6,66.0,29.17,SSW,202,1.6,2.0,99,0.00,,,0.01,Rainwise IP-100,2013-09-13 07:23:00,
2013-09-13 03:28:00,66.5,66.0,29.16,SSW,202,0.0,2.0,99,0.00,,,0.01,Rainwise IP-100,2013-09-13 07:28:00,
2013-09-13 03:33:00,66.4,66.0,29.17,SSW,202,0.0,0.0,100,0.00,,,0.01,Rainwise IP-100,2013-09-13 07:33:00,
2013-09-13 03:38:00,66.4,66.0,29.17,SSW,202,1.2,0.0,100,0.00,,,0.01,Rainwise IP-100,2013-09-13 07:38:00,
2013-09-13 03:43:00,66.4,66.0,29.17,SSW,202,0.0,1.0,100,0.00,,,0.01,Rainwise IP-100,2013-09-13 07:43:00,
2013-09-13 03:48:00,66.5,66.0,29.17,SSW,202,0.0,0.0,100,0.00,,,0.01,Rainwise IP-100,2013-09-13 07:48:00,
2013-09-13 03:53:00,66.5,66.0,29.18,SSW,202,0.0,0.0,100,0.00,,,0.01,Rainwise IP-100,2013-09-13 07:53:00,
2013-09-13 03:58:00,66.4,66.0,29.17,SSW,202,0.0,0.0,100,0.00,,,0.01,Rainwise IP-100,2013-09-13 07:58:00,
2013-09-13 04:03:00,66.2,66.0,29.17,SSW,202,0.0,1.0,100,0.00,,,0.01,Rainwise IP-100,2013-09-13 08:03:00,
2013-09-13 04:08:00,66.1,66.0,29.17,SSW,202,0.0,0.0,100,0.00,,,0.01,Rainwise IP-100,2013-09-13 08:08:00,
2013-09-13 04:13:00,66.1,66.0,29.17,WSW,247,0.0,0.0,100,0.00,,,0.01,Rainwise IP-100,2013-09-13 08:13:00,
2013-09-13 04:18:00,66.0,66.0,29.17,WSW,247,0.0,1.0,100,0.00,,,0.01,Rainwise IP-100,2013-09-13 08:18:00,
2013-09-13 04:23:00,65.9,66.0,29.17,WSW,247,0.0,0.0,100,0.00,,,0.01,Rainwise IP-100,2013-09-13 08:23:00,
2013-09-13 04:28:00,65.9,66.0,29.17,WSW,247,1.2,1.2,100,0.00,,,0.01,Rainwise IP-100,2013-09-13 08:28:00,
2013-09-13 04:33:00,65.8,65.0,29.17,WSW,247,1.4,1.4,100,0.00,,,0.01,Rainwise IP-100,2013-09-13 08:33:00,
2013-09-13 04:39:00,65.8,65.0,29.18,WSW,247,0.0,1.0,100,0.00,,,0.01,Rainwise IP-100,2013-09-13 08:39:00,
2013-09-13 04:44:00,65.8,65.0,29.18,NNW,337,3.0,3.0,100,0.00,,,0.01,Rainwise IP-100,2013-09-13 08:44:00,
2013-09-13 04:49:00,65.8,65.0,29.17,NNW,337,3.3,4.0,100,0.00,,,0.01,Rainwise IP-100,2013-09-13 08:49:00,
2013-09-13 04:54:00,65.8,65.0,29.17,ESE,112,1.9,4.0,100,0.06,,,0.02,Rainwise IP-100,2013-09-13 08:54:00,
2013-09-13 04:59:00,65.7,65.0,29.16,ESE,112,0.0,1.0,100,0.06,,,0.02,Rainwise IP-100,2013-09-13 08:59:00,
2013-09-13 05:04:00,65.7,65.0,29.17,North,360,4.4,8.0,99,0.00,,,0.02,Rainwise IP-100,2013-09-13 09:04:00,
2013-09-13 05:09:00,65.6,65.0,29.17,NNW,337,1.9,5.0,98,0.00,,,0.02,Rainwise IP-100,2013-09-13 09:09:00,
2013-09-13 05:14:00,65.6,65.0,29.17,NNW,337,0.0,5.0,98,0.00,,,0.02,Rainwise IP-100,2013-09-13 09:14:00,
2013-09-13 05:19:00,65.5,65.0,29.17,NNW,337,3.3,5.0,98,0.00,,,0.02,Rainwise IP-100,2013-09-13 09:19:00,
2013-09-13 05:24:00,65.3,64.0,29.17,NNW,337,0.0,5.0,98,0.00,,,0.02,Rainwise IP-100,2013-09-13 09:24:00,
2013-09-13 05:29:00,65.1,64.0,29.17,NNW,337,0.0,1.0,98,0.00,,,0.02,Rainwise IP-100,2013-09-13 09:29:00,
2013-09-13 05:34:00,65.0,64.0,29.17,NNW,337,0.0,2.0,99,0.00,,,0.02,Rainwise IP-100,2013-09-13 09:34:00,
2013-09-13 05:39:00,64.9,64.0,29.17,NNW,337,0.0,1.0,99,0.00,,,0.02,Rainwise IP-100,2013-09-13 09:39:00,
2013-09-13 05:44:00,64.8,64.0,29.17,NNW,337,0.0,0.0,99,0.00,,,0.02,Rainwise IP-100,2013-09-13 09:44:00,
2013-09-13 05:49:00,64.8,64.0,29.18,NNW,337,0.0,0.0,99,0.00,,,0.02,Rainwise IP-100,2013-09-13 09:49:00,
2013-09-13 05:55:00,64.8,64.0,29.18,NNW,337,0.0,0.0,99,0.00,,,0.02,Rainwise IP-100,2013-09-13 09:55:00,
2013-09-13 06:00:00,64.8,64.0,29.18,NNW,337,1.4,0.0,99,0.00,,,0.02,Rainwise IP-100,2013-09-13 10:00:00,
2013-09-13 06:05:00,64.8,64.0,29.18,NNW,337,0.0,1.0,99,0.00,,,0.02,Rainwise IP-100,2013-09-13 10:05:00,
2013-09-13 06:10:00,64.8,64.0,29.19,NNW,337,0.0,2.0,99,0.00,,,0.02,Rainwise IP-100,2013-09-13 10:10:00,
2013-09-13 06:15:00,64.7,64.0,29.19,NNW,337,0.0,0.0,99,0.00,,,0.02,Rainwise IP-100,2013-09-13 10:15:00,
2013-09-13 06:20:00,64.6,64.0,29.19,NNW,337,0.0,0.0,99,0.00,,,0.02,Rainwise IP-100,2013-09-13 10:20:00,
2013-09-13 06:25:00,64.5,64.0,29.20,NNW,337,0.0,0.0,99,0.00,,,0.02,Rainwise IP-100,2013-09-13 10:25:00,
2013-09-13 06:30:00,64.4,64.0,29.20,NNW,337,1.2,3.0,99,0.00,,,0.02,Rainwise IP-100,2013-09-13 10:30:00,
2013-09-13 06:35:00,64.4,64.0,29.20,NNW,337,2.3,2.3,99,0.00,,,0.02,Rainwise IP-100,2013-09-13 10:35:00,
2013-09-13 06:40:00,64.5,64.0,29.20,NNW,337,0.0,2.0,99,0.00,,,0.02,Rainwise IP-100,2013-09-13 10:40:00,
2013-09-13 06:45:00,64.4,64.0,29.20,NNW,337,0.0,0.0,99,0.00,,,0.02,Rainwise IP-100,2013-09-13 10:45:00,
2013-09-13 06:50:00,64.4,64.0,29.20,NNE,22,1.6,3.0,99,0.00,,,0.02,Rainwise IP-100,2013-09-13 10:50:00,
2013-09-13 06:55:00,64.4,64.0,29.19,NW,315,2.8,4.0,99,0.00,,,0.02,Rainwise IP-100,2013-09-13 10:55:00,
2013-09-13 07:00:00,64.4,64.0,29.19,North,360,3.0,4.0,100,0.00,,,0.02,Rainwise IP-100,2013-09-13 11:00:00,
2013-09-13 07:05:00,64.4,64.0,29.20,North,360,1.2,4.0,99,0.00,,,0.02,Rainwise IP-100,2013-09-13 11:05:00,
2013-09-13 07:11:00,64.4,64.0,29.20,North,360,1.6,2.0,99,0.00,,,0.02,Rainwise IP-100,2013-09-13 11:11:00,
2013-09-13 07:16:00,64.4,64.0,29.19,NNE,22,2.3,2.3,99,0.00,,,0.02,Rainwise IP-100,2013-09-13 11:16:00,
2013-09-13 07:21:00,64.5,64.0,29.19,NNE,22,0.0,2.0,99,0.00,,,0.02,Rainwise IP-100,2013-09-13 11:21:00,
2013-09-13 07:26:00,64.5,64.0,29.20,NNE,22,0.0,1.0,99,0.00,,,0.02,Rainwise IP-100,2013-09-13 11:26:00,
2013-09-13 07:31:00,64.6,64.0,29.20,NNE,22,0.0,0.0,99,0.00,,,0.02,Rainwise IP-100,2013-09-13 11:31:00,
2013-09-13 07:36:00,64.6,64.0,29.20,NNE,22,0.0,0.0,99,0.00,,,0.02,Rainwise IP-100,2013-09-13 11:36:00,
2013-09-13 07:41:00,64.7,64.0,29.20,NNE,22,0.0,1.0,100,0.00,,,0.02,Rainwise IP-100,2013-09-13 11:41:00,
2013-09-13 07:46:00,64.7,64.0,29.20,NNE,22,0.0,0.0,100,0.00,,,0.02,Rainwise IP-100,2013-09-13 11:46:00,
2013-09-13 07:51:00,64.7,64.0,29.20,NNE,22,0.0,0.0,100,0.00,,,0.02,Rainwise IP-100,2013-09-13 11:51:00,
2013-09-13 07:56:00,64.8,64.0,29.20,NNE,22,0.0,0.0,100,0.00,,,0.02,Rainwise IP-100,2013-09-13 11:56:00,
2013-09-13 08:01:00,64.8,64.0,29.20,NNE,22,0.0,0.0,100,0.00,,,0.02,Rainwise IP-100,2013-09-13 12:01:00,
2013-09-13 08:06:00,64.9,65.0,29.20,NNE,22,0.0,0.0,100,0.00,,,0.02,Rainwise IP-100,2013-09-13 12:06:00,
2013-09-13 08:11:00,65.0,65.0,29.20,NNE,22,0.0,0.0,100,0.00,,,0.02,Rainwise IP-100,2013-09-13 12:11:00,
2013-09-13 08:16:00,65.0,65.0,29.21,NNE,22,0.0,0.0,100,0.00,,,0.02,Rainwise IP-100,2013-09-13 12:16:00,
2013-09-13 08:21:00,65.1,65.0,29.20,NNE,22,0.0,0.0,100,0.00,,,0.02,Rainwise IP-100,2013-09-13 12:21:00,
2013-09-13 08:27:00,65.1,65.0,29.20,NNE,22,0.0,0.0,100,0.00,,,0.02,Rainwise IP-100,2013-09-13 12:27:00,
2013-09-13 08:32:00,65.2,65.0,29.20,ESE,112,0.0,1.0,100,0.00,,,0.02,Rainwise IP-100,2013-09-13 12:32:00,
2013-09-13 08:37:00,65.1,64.0,29.20,ESE,112,0.0,0.0,99,0.00,,,0.02,Rainwise IP-100,2013-09-13 12:37:00,
2013-09-13 08:42:00,65.1,64.0,29.20,ESE,112,0.0,0.0,99,0.00,,,0.02,Rainwise IP-100,2013-09-13 12:42:00,
2013-09-13 08:47:00,65.2,64.0,29.20,ESE,112,0.0,0.0,99,0.00,,,0.02,Rainwise IP-100,2013-09-13 12:47:00,
2013-09-13 08:52:00,65.3,64.0,29.20,ESE,112,0.0,0.0,99,0.00,,,0.02,Rainwise IP-100,2013-09-13 12:52:00,
2013-09-13 08:57:00,65.4,65.0,29.20,South,180,1.9,0.0,99,0.00,,,0.02,Rainwise IP-100,2013-09-13 12:57:00,
2013-09-13 09:02:00,65.5,65.0,29.20,South,180,0.0,2.0,100,0.00,,,0.02,Rainwise IP-100,2013-09-13 13:02:00,
2013-09-13 09:07:00,65.4,65.0,29.21,South,180,0.0,0.0,99,0.00,,,0.02,Rainwise IP-100,2013-09-13 13:07:00,
2013-09-13 09:12:00,65.4,65.0,29.21,South,180,0.0,0.0,99,0.00,,,0.02,Rainwise IP-100,2013-09-13 13:12:00,
2013-09-13 09:17:00,65.5,65.0,29.21,South,180,0.0,0.0,100,0.00,,,0.02,Rainwise IP-100,2013-09-13 13:17:00,
2013-09-13 09:23:00,65.6,65.0,29.21,South,180,0.0,0.0,99,0.00,,,0.02,Rainwise IP-100,2013-09-13 13:23:00,
2013-09-13 09:28:00,65.7,65.0,29.21,South,180,0.0,0.0,99,0.00,,,0.02,Rainwise IP-100,2013-09-13 13:28:00,
2013-09-13 09:33:00,65.5,65.0,29.21,South,180,0.0,0.0,99,0.12,,,0.05,Rainwise IP-100,2013-09-13 13:33:00,
2013-09-13 09:38:00,65.5,65.0,29.21,South,180,0.0,0.0,99,0.30,,,0.07,Rainwise IP-100,2013-09-13 13:38:00,
2013-09-13 09:43:00,65.5,65.0,29.21,North,360,3.7,5.0,99,0.18,,,0.08,Rainwise IP-100,2013-09-13 13:43:00,
2013-09-13 09:48:00,65.5,65.0,29.21,NNE,22,4.4,6.0,99,0.12,,,0.09,Rainwise IP-100,2013-09-13 13:48:00,
2013-09-13 09:53:00,65.5,65.0,29.22,NNW,337,0.0,5.0,98,0.06,,,0.09,Rainwise IP-100,2013-09-13 13:53:00,
2013-09-13 09:58:00,65.5,65.0,29.22,NNE,22,3.7,7.0,98,0.00,,,0.09,Rainwise IP-100,2013-09-13 13:58:00,
2013-09-13 10:03:00,65.3,64.0,29.22,North,360,6.5,6.5,98,0.06,,,0.10,Rainwise IP-100,2013-09-13 14:03:00,
2013-09-13 10:08:00,65.2,64.0,29.22,NNE,22,3.3,6.0,98,0.06,,,0.10,Rainwise IP-100,2013-09-13 14:08:00,
2013-09-13 10:13:00,64.9,64.0,29.22,NNE,22,5.1,5.1,98,0.00,,,0.10,Rainwise IP-100,2013-09-13 14:13:00,
2013-09-13 10:18:00,64.6,64.0,29.22,ENE,67,3.5,6.0,98,0.06,,,0.11,Rainwise IP-100,2013-09-13 14:18:00,
2013-09-13 10:23:00,64.3,63.0,29.21,ENE,67,4.7,6.0,98,0.12,,,0.12,Rainwise IP-100,2013-09-13 14:23:00,
2013-09-13 10:28:00,64.3,63.0,29.22,NNE,22,1.6,4.0,98,0.12,,,0.13,Rainwise IP-100,2013-09-13 14:28:00,
2013-09-13 10:33:00,64.3,63.0,29.22,NNW,337,0.0,2.0,98,0.12,,,0.14,Rainwise IP-100,2013-09-13 14:33:00,
2013-09-13 10:39:00,64.3,63.0,29.22,NNE,22,2.8,4.0,98,0.12,,,0.15,Rainwise IP-100,2013-09-13 14:39:00,
2013-09-13 10:44:00,64.3,63.0,29.22,NE,45,2.1,4.0,98,0.06,,,0.15,Rainwise IP-100,2013-09-13 14:44:00,
2013-09-13 10:49:00,64.3,63.0,29.21,NNW,337,4.2,5.0,98,0.06,,,0.16,Rainwise IP-100,2013-09-13 14:49:00,
2013-09-13 10:54:00,64.3,63.0,29.21,NNE,22,5.6,11.0,98,0.06,,,0.16,Rainwise IP-100,2013-09-13 14:54:00,
2013-09-13 10:59:00,64.5,63.0,29.21,NNE,22,5.4,10.0,97,0.06,,,0.17,Rainwise IP-100,2013-09-13 14:59:00,
2013-09-13 11:04:00,64.9,64.0,29.21,NNW,337,0.0,8.0,97,0.06,,,0.17,Rainwise IP-100,2013-09-13 15:04:00,
2013-09-13 11:09:00,65.2,64.0,29.21,NE,45,4.2,7.0,97,0.00,,,0.17,Rainwise IP-100,2013-09-13 15:09:00,
2013-09-13 11:14:00,65.3,64.0,29.21,NNE,22,3.3,6.0,97,0.00,,,0.17,Rainwise IP-100,2013-09-13 15:14:00,
2013-09-13 11:19:00,65.3,64.0,29.21,NNE,22,4.7,10.0,96,0.00,,,0.17,Rainwise IP-100,2013-09-13 15:19:00,
2013-09-13 11:24:00,65.3,63.0,29.21,NW,315,3.5,8.0,95,0.00,,,0.17,Rainwise IP-100,2013-09-13 15:24:00,
2013-09-13 11:29:00,65.3,63.0,29.21,NNE,22,4.0,8.0,95,0.00,,,0.17,Rainwise IP-100,2013-09-13 15:29:00,
2013-09-13 11:34:00,65.2,63.0,29.22,NNE,22,1.4,6.0,95,0.00,,,0.17,Rainwise IP-100,2013-09-13 15:34:00,
2013-09-13 11:39:00,65.1,64.0,29.22,WNW,292,4.2,4.2,96,0.00,,,0.17,Rainwise IP-100,2013-09-13 15:39:00,
2013-09-13 11:44:00,65.1,64.0,29.22,NNE,22,4.0,8.0,96,0.00,,,0.17,Rainwise IP-100,2013-09-13 15:44:00,
2013-09-13 11:49:00,65.0,63.0,29.22,NNE,22,1.2,5.0,95,0.00,,,0.17,Rainwise IP-100,2013-09-13 15:49:00,
2013-09-13 11:55:00,64.8,63.0,29.22,NNE,22,3.7,5.0,95,0.00,,,0.17,Rainwise IP-100,2013-09-13 15:55:00,
2013-09-13 12:00:00,64.6,63.0,29.22,NNE,22,5.4,6.0,95,0.00,,,0.17,Rainwise IP-100,2013-09-13 16:00:00,
2013-09-13 12:05:00,64.2,62.0,29.22,NNE,22,5.1,9.0,95,0.00,,,0.17,Rainwise IP-100,2013-09-13 16:05:00,
2013-09-13 12:10:00,63.8,61.0,29.22,North,360,3.5,10.0,94,0.00,,,0.17,Rainwise IP-100,2013-09-13 16:10:00,
2013-09-13 12:15:00,63.5,62.0,29.23,North,360,7.0,7.0,95,0.00,,,0.17,Rainwise IP-100,2013-09-13 16:15:00,
2013-09-13 12:20:00,63.3,61.0,29.23,NNE,22,3.3,7.0,95,0.00,,,0.17,Rainwise IP-100,2013-09-13 16:20:00,
2013-09-13 12:25:00,63.0,62.0,29.23,NNE,22,5.4,7.0,96,0.12,,,0.20,Rainwise IP-100,2013-09-13 16:25:00,
2013-09-13 12:30:00,62.7,61.0,29.23,East,90,0.0,8.0,96,0.30,,,0.23,Rainwise IP-100,2013-09-13 16:30:00,
2013-09-13 12:35:00,62.6,61.0,29.23,NNE,22,3.0,7.0,96,0.36,,,0.25,Rainwise IP-100,2013-09-13 16:35:00,
2013-09-13 12:40:00,62.4,61.0,29.23,NNE,22,7.7,9.0,96,0.36,,,0.28,Rainwise IP-100,2013-09-13 16:40:00,
2013-09-13 12:45:00,62.3,61.0,29.23,North,360,4.2,8.0,97,0.30,,,0.31,Rainwise IP-100,2013-09-13 16:45:00,
2013-09-13 12:50:00,62.4,61.0,29.23,ENE,67,3.5,8.0,97,0.30,,,0.33,Rainwise IP-100,2013-09-13 16:50:00,
2013-09-13 12:55:00,62.6,61.0,29.23,ENE,67,2.1,8.0,97,0.24,,,0.34,Rainwise IP-100,2013-09-13 16:55:00,
2013-09-13 13:00:00,62.7,61.0,29.23,ENE,67,4.2,4.2,97,0.06,,,0.34,Rainwise IP-100,2013-09-13 17:00:00,
2013-09-13 13:05:00,62.9,62.0,29.23,NNE,22,6.3,6.3,97,0.06,,,0.35,Rainwise IP-100,2013-09-13 17:05:00,
2013-09-13 13:11:00,63.1,62.0,29.22,NNE,22,3.7,7.0,97,0.06,,,0.35,Rainwise IP-100,2013-09-13 17:11:00,
2013-09-13 13:16:00,63.3,62.0,29.22,East,90,3.0,6.0,97,0.00,,,0.35,Rainwise IP-100,2013-09-13 17:16:00,
2013-09-13 13:21:00,63.4,62.0,29.23,ENE,67,4.0,5.0,97,0.00,,,0.35,Rainwise IP-100,2013-09-13 17:21:00,
2013-09-13 13:26:00,63.5,62.0,29.23,NNE,22,4.0,5.0,97,0.00,,,0.35,Rainwise IP-100,2013-09-13 17:26:00,
2013-09-13 13:31:00,63.8,62.0,29.23,NNE,22,2.8,7.0,96,0.00,,,0.35,Rainwise IP-100,2013-09-13 17:31:00,
2013-09-13 13:36:00,64.0,63.0,29.23,NNE,22,7.2,11.0,96,0.00,,,0.35,Rainwise IP-100,2013-09-13 17:36:00,
2013-09-13 13:41:00,64.0,62.0,29.22,NNE,22,5.6,9.0,95,0.06,,,0.36,Rainwise IP-100,2013-09-13 17:41:00,
2013-09-13 13:46:00,63.9,62.0,29.22,North,360,8.4,10.0,95,0.06,,,0.36,Rainwise IP-100,2013-09-13 17:46:00,
2013-09-13 13:51:00,63.8,62.0,29.22,NE,45,2.8,9.0,95,0.00,,,0.36,Rainwise IP-100,2013-09-13 17:51:00,
2013-09-13 13:56:00,63.8,62.0,29.22,WNW,292,3.7,11.0,95,0.00,,,0.36,Rainwise IP-100,2013-09-13 17:56:00,
2013-09-13 14:01:00,63.9,62.0,29.22,NNW,337,6.3,11.0,94,0.00,,,0.36,Rainwise IP-100,2013-09-13 18:01:00,
2013-09-13 14:06:00,63.9,62.0,29.23,NNE,22,2.6,7.0,94,0.00,,,0.36,Rainwise IP-100,2013-09-13 18:06:00,
2013-09-13 14:11:00,64.0,62.0,29.22,North,360,7.0,8.0,94,0.00,,,0.36,Rainwise IP-100,2013-09-13 18:11:00,
2013-09-13 14:16:00,64.0,62.0,29.22,North,360,8.2,8.2,94,0.00,,,0.36,Rainwise IP-100,2013-09-13 18:16:00,
2013-09-13 14:21:00,64.0,62.0,29.23,ENE,67,2.3,8.0,93,0.00,,,0.36,Rainwise IP-100,2013-09-13 18:21:00,
2013-09-13 14:27:00,64.1,62.0,29.23,NW,315,0.0,7.0,93,0.00,,,0.36,Rainwise IP-100,2013-09-13 18:27:00,
2013-09-13 14:32:00,64.2,62.0,29.23,NE,45,3.3,5.0,93,0.00,,,0.36,Rainwise IP-100,2013-09-13 18:32:00,
2013-09-13 14:37:00,64.1,62.0,29.23,NNW,337,7.7,11.0,93,0.00,,,0.36,Rainwise IP-100,2013-09-13 18:37:00,
2013-09-13 14:42:00,64.1,61.0,29.23,NNE,22,0.0,10.0,92,0.00,,,0.36,Rainwise IP-100,2013-09-13 18:42:00,
2013-09-13 14:47:00,63.9,61.0,29.23,NE,45,4.4,12.0,92,0.00,,,0.36,Rainwise IP-100,2013-09-13 18:47:00,
2013-09-13 14:52:00,63.6,61.0,29.23,NNE,22,2.6,11.0,92,0.00,,,0.36,Rainwise IP-100,2013-09-13 18:52:00,
2013-09-13 14:57:00,63.2,60.0,29.23,NNE,22,5.1,9.0,92,0.00,,,0.36,Rainwise IP-100,2013-09-13 18:57:00,
2013-09-13 15:02:00,63.0,60.0,29.23,NNE,22,4.9,12.0,92,0.00,,,0.36,Rainwise IP-100,2013-09-13 19:02:00,
2013-09-13 15:07:00,62.8,60.0,29.23,NNE,22,4.0,9.0,92,0.00,,,0.36,Rainwise IP-100,2013-09-13 19:07:00,
2013-09-13 15:12:00,62.6,60.0,29.23,NNE,22,7.5,9.0,93,0.00,,,0.36,Rainwise IP-100,2013-09-13 19:12:00,
2013-09-13 15:17:00,62.4,60.0,29.23,NNE,22,7.2,12.0,93,0.00,,,0.36,Rainwise IP-100,2013-09-13 19:17:00,
2013-09-13 15:22:00,62.2,60.0,29.23,NNE,22,4.9,17.0,93,0.00,,,0.36,Rainwise IP-100,2013-09-13 19:22:00,
2013-09-13 15:27:00,61.9,60.0,29.24,NNE,22,3.0,13.0,92,0.06,,,0.37,Rainwise IP-100,2013-09-13 19:27:00,
2013-09-13 15:32:00,61.7,59.0,29.24,NNE,22,8.4,12.0,92,0.06,,,0.37,Rainwise IP-100,2013-09-13 19:32:00,
2013-09-13 15:37:00,61.6,59.0,29.24,NNE,22,4.2,14.0,92,0.00,,,0.37,Rainwise IP-100,2013-09-13 19:37:00,
2013-09-13 15:43:00,61.7,59.0,29.24,North,360,5.4,11.0,92,0.00,,,0.37,Rainwise IP-100,2013-09-13 19:43:00,
2013-09-13 15:48:00,61.9,60.0,29.24,NNW,337,4.0,10.0,93,0.00,,,0.37,Rainwise IP-100,2013-09-13 19:48:00,
2013-09-13 15:53:00,62.4,60.0,29.23,ENE,67,6.1,14.0,93,0.00,,,0.37,Rainwise IP-100,2013-09-13 19:53:00,
2013-09-13 15:58:00,62.7,60.0,29.25,NNE,22,1.9,13.0,92,0.00,,,0.37,Rainwise IP-100,2013-09-13 19:58:00,
2013-09-13 16:03:00,62.9,60.0,29.25,NNE,22,3.7,5.0,92,0.00,,,0.37,Rainwise IP-100,2013-09-13 20:03:00,
2013-09-13 16:08:00,63.0,60.0,29.25,NNE,22,3.0,9.0,91,0.00,,,0.37,Rainwise IP-100,2013-09-13 20:08:00,
2013-09-13 16:13:00,62.9,60.0,29.25,NE,45,5.1,9.0,90,0.00,,,0.37,Rainwise IP-100,2013-09-13 20:13:00,
2013-09-13 16:18:00,62.7,60.0,29.25,NNW,337,4.7,10.0,91,0.00,,,0.37,Rainwise IP-100,2013-09-13 20:18:00,
2013-09-13 16:23:00,62.7,60.0,29.26,NNW,337,5.6,5.6,91,0.00,,,0.37,Rainwise IP-100,2013-09-13 20:23:00,
2013-09-13 16:28:00,62.8,59.0,29.26,NNW,337,1.6,8.0,90,0.00,,,0.37,Rainwise IP-100,2013-09-13 20:28:00,
2013-09-13 16:33:00,62.8,59.0,29.26,North,360,4.2,4.2,90,0.00,,,0.37,Rainwise IP-100,2013-09-13 20:33:00,
2013-09-13 16:38:00,62.8,59.0,29.26,NNE,22,2.6,17.0,90,0.00,,,0.37,Rainwise IP-100,2013-09-13 20:38:00,
2013-09-13 16:43:00,62.7,59.0,29.26,NNW,337,5.8,12.0,89,0.00,,,0.37,Rainwise IP-100,2013-09-13 20:43:00,
2013-09-13 16:48:00,62.5,59.0,29.26,NNE,22,8.6,16.0,89,0.00,,,0.37,Rainwise IP-100,2013-09-13 20:48:00,
2013-09-13 16:53:00,62.5,59.0,29.26,NNE,22,8.6,12.0,89,0.00,,,0.37,Rainwise IP-100,2013-09-13 20:53:00,
2013-09-13 16:59:00,62.5,59.0,29.26,WNW,292,9.3,11.0,89,0.00,,,0.37,Rainwise IP-100,2013-09-13 20:59:00,
2013-09-13 17:04:00,62.6,59.0,29.26,NNE,22,9.6,11.0,89,0.00,,,0.37,Rainwise IP-100,2013-09-13 21:04:00,
2013-09-13 17:09:00,62.7,59.0,29.27,North,360,6.8,10.0,88,0.00,,,0.37,Rainwise IP-100,2013-09-13 21:09:00,
2013-09-13 17:14:00,62.8,59.0,29.26,NNW,337,1.4,12.0,88,0.00,,,0.37,Rainwise IP-100,2013-09-13 21:14:00,
2013-09-13 17:19:00,62.7,59.0,29.26,NNE,22,6.8,12.0,90,0.00,,,0.37,Rainwise IP-100,2013-09-13 21:19:00,
2013-09-13 17:24:00,62.5,59.0,29.27,NW,315,5.4,17.0,89,0.00,,,0.37,Rainwise IP-100,2013-09-13 21:24:00,
2013-09-13 17:29:00,62.0,59.0,29.26,North,360,5.6,18.0,89,0.00,,,0.37,Rainwise IP-100,2013-09-13 21:29:00,
2013-09-13 17:34:00,61.4,58.0,29.27,NNW,337,6.5,14.0,89,0.00,,,0.37,Rainwise IP-100,2013-09-13 21:34:00,
2013-09-13 17:39:00,61.0,57.0,29.27,NNE,22,2.3,14.0,89,0.00,,,0.37,Rainwise IP-100,2013-09-13 21:39:00,
2013-09-13 17:44:00,60.6,57.0,29.27,NNW,337,4.4,11.0,88,0.00,,,0.37,Rainwise IP-100,2013-09-13 21:44:00,
2013-09-13 17:49:00,60.1,56.0,29.27,NNE,22,7.7,11.0,88,0.00,,,0.37,Rainwise IP-100,2013-09-13 21:49:00,
2013-09-13 17:54:00,59.9,56.0,29.27,NNE,22,7.0,11.0,89,0.00,,,0.37,Rainwise IP-100,2013-09-13 21:54:00,
2013-09-13 17:59:00,59.8,56.0,29.27,North,360,3.5,12.0,89,0.00,,,0.37,Rainwise IP-100,2013-09-13 21:59:00,
2013-09-13 18:04:00,59.6,56.0,29.29,NNE,22,8.6,10.0,89,0.00,,,0.37,Rainwise IP-100,2013-09-13 22:04:00,
2013-09-13 18:09:00,59.4,56.0,29.28,ENE,67,5.6,11.0,89,0.00,,,0.37,Rainwise IP-100,2013-09-13 22:09:00,
2013-09-13 18:15:00,59.2,56.0,29.28,NE,45,2.6,9.0,89,0.00,,,0.37,Rainwise IP-100,2013-09-13 22:15:00,
2013-09-13 18:20:00,59.0,56.0,29.28,NNE,22,6.1,9.0,89,0.00,,,0.37,Rainwise IP-100,2013-09-13 22:20:00,
2013-09-13 18:25:00,58.9,56.0,29.28,NNE,22,6.3,13.0,89,0.00,,,0.37,Rainwise IP-100,2013-09-13 22:25:00,
2013-09-13 18:30:00,58.8,56.0,29.29,ENE,67,8.9,11.0,89,0.00,,,0.37,Rainwise IP-100,2013-09-13 22:30:00,
2013-09-13 18:35:00,58.6,56.0,29.29,NNE,22,6.1,10.0,89,0.00,,,0.37,Rainwise IP-100,2013-09-13 22:35:00,
2013-09-13 18:40:00,58.5,56.0,29.29,NNE,22,4.9,10.0,90,0.00,,,0.37,Rainwise IP-100,2013-09-13 22:40:00,
2013-09-13 18:45:00,58.4,55.0,29.29,NNW,337,4.4,10.0,90,0.00,,,0.37,Rainwise IP-100,2013-09-13 22:45:00,
2013-09-13 18:50:00,58.4,55.0,29.29,NNE,22,4.0,10.0,90,0.00,,,0.37,Rainwise IP-100,2013-09-13 22:50:00,
2013-09-13 18:55:00,58.3,55.0,29.29,NNE,22,1.6,7.0,90,0.00,,,0.37,Rainwise IP-100,2013-09-13 22:55:00,
2013-09-13 19:00:00,58.3,55.0,29.29,NNE,22,7.7,7.7,90,0.00,,,0.37,Rainwise IP-100,2013-09-13 23:00:00,
2013-09-13 19:05:00,58.2,55.0,29.29,NNE,22,4.0,8.0,90,0.00,,,0.37,Rainwise IP-100,2013-09-13 23:05:00,
2013-09-13 19:10:00,58.1,55.0,29.30,NNW,337,6.3,7.0,90,0.00,,,0.37,Rainwise IP-100,2013-09-13 23:10:00,
2013-09-13 19:15:00,58.1,55.0,29.30,North,360,5.4,8.0,90,0.00,,,0.37,Rainwise IP-100,2013-09-13 23:15:00,
2013-09-13 19:20:00,58.1,55.0,29.30,NNE,22,4.4,9.0,90,0.00,,,0.37,Rainwise IP-100,2013-09-13 23:20:00,
2013-09-13 19:25:00,58.0,55.0,29.30,NNE,22,2.1,9.0,89,0.00,,,0.37,Rainwise IP-100,2013-09-13 23:25:00,
2013-09-13 19:31:00,57.9,55.0,29.31,North,360,4.4,7.0,90,0.00,,,0.37,Rainwise IP-100,2013-09-13 23:31:00,
2013-09-13 19:36:00,57.8,54.0,29.31,North,360,7.7,9.0,90,0.00,,,0.37,Rainwise IP-100,2013-09-13 23:36:00,
2013-09-13 19:41:00,57.8,54.0,29.31,NNE,22,7.5,11.0,90,0.00,,,0.37,Rainwise IP-100,2013-09-13 23:41:00,
2013-09-13 19:46:00,57.9,55.0,29.32,NNE,22,3.5,9.0,89,0.00,,,0.37,Rainwise IP-100,2013-09-13 23:46:00,
2013-09-13 19:51:00,57.8,54.0,29.32,NNE,22,1.6,7.0,89,0.00,,,0.37,Rainwise IP-100,2013-09-13 23:51:00,
2013-09-13 19:56:00,57.7,54.0,29.32,NE,45,1.9,10.0,89,0.00,,,0.37,Rainwise IP-100,2013-09-13 23:56:00,
2013-09-13 20:01:00,57.8,54.0,29.33,NNE,22,2.6,6.0,89,0.00,,,0.37,Rainwise IP-100,2013-09-14 00:01:00,
2013-09-13 20:06:00,57.6,54.0,29.33,ESE,112,0.0,4.0,90,0.00,,,0.37,Rainwise IP-100,2013-09-14 00:06:00,
2013-09-13 20:11:00,57.5,54.0,29.34,NE,45,2.8,6.0,90,0.00,,,0.37,Rainwise IP-100,2013-09-14 00:11:00,
2013-09-13 20:16:00,57.5,54.0,29.34,NNE,22,3.7,4.0,90,0.00,,,0.37,Rainwise IP-100,2013-09-14 00:16:00,
2013-09-13 20:21:00,57.5,54.0,29.34,NW,315,3.3,4.0,90,0.00,,,0.37,Rainwise IP-100,2013-09-14 00:21:00,
2013-09-13 20:26:00,57.5,54.0,29.34,NNW,337,0.0,5.0,89,0.00,,,0.37,Rainwise IP-100,2013-09-14 00:26:00,
2013-09-13 20:31:00,57.4,54.0,29.34,NE,45,2.1,7.0,90,0.00,,,0.37,Rainwise IP-100,2013-09-14 00:31:00,
2013-09-13 20:36:00,57.4,54.0,29.34,NE,45,3.5,8.0,90,0.00,,,0.37,Rainwise IP-100,2013-09-14 00:36:00,
2013-09-13 20:41:00,57.4,54.0,29.35,North,360,0.0,5.0,90,0.00,,,0.37,Rainwise IP-100,2013-09-14 00:41:00,
2013-09-13 20:47:00,57.4,54.0,29.35,NNW,337,2.1,5.0,90,0.00,,,0.37,Rainwise IP-100,2013-09-14 00:47:00,
2013-09-13 20:52:00,57.2,54.0,29.35,NNE,22,5.8,5.8,89,0.00,,,0.37,Rainwise IP-100,2013-09-14 00:52:00,
2013-09-13 20:57:00,57.2,54.0,29.36,NNW,337,4.9,5.0,89,0.00,,,0.37,Rainwise IP-100,2013-09-14 00:57:00,
2013-09-13 21:02:00,57.2,54.0,29.35,NE,45,1.6,8.0,89,0.00,,,0.37,Rainwise IP-100,2013-09-14 01:02:00,
2013-09-13 21:07:00,57.2,54.0,29.35,NNW,337,6.3,8.0,89,0.00,,,0.37,Rainwise IP-100,2013-09-14 01:07:00,
2013-09-13 21:12:00,57.2,54.0,29.35,NNE,22,2.1,6.0,89,0.00,,,0.37,Rainwise IP-100,2013-09-14 01:12:00,
2013-09-13 21:17:00,57.2,54.0,29.36,NNE,22,6.1,7.0,89,0.00,,,0.37,Rainwise IP-100,2013-09-14 01:17:00,
2013-09-13 21:22:00,57.1,54.0,29.35,NE,45,1.4,6.0,89,0.00,,,0.37,Rainwise IP-100,2013-09-14 01:22:00,
2013-09-13 21:27:00,57.1,53.0,29.35,North,360,0.0,6.0,88,0.00,,,0.37,Rainwise IP-100,2013-09-14 01:27:00,
2013-09-13 21:32:00,57.0,54.0,29.36,WNW,292,0.0,1.0,89,0.00,,,0.37,Rainwise IP-100,2013-09-14 01:32:00,
2013-09-13 21:37:00,56.7,53.0,29.36,WNW,292,1.4,1.4,90,0.00,,,0.37,Rainwise IP-100,2013-09-14 01:37:00,
2013-09-13 21:42:00,56.6,53.0,29.36,WNW,292,0.0,1.0,90,0.00,,,0.37,Rainwise IP-100,2013-09-14 01:42:00,
2013-09-13 21:47:00,56.6,53.0,29.36,NNW,337,5.4,5.4,90,0.00,,,0.37,Rainwise IP-100,2013-09-14 01:47:00,
2013-09-13 21:52:00,56.6,53.0,29.36,NNE,22,3.7,5.0,89,0.00,,,0.37,Rainwise IP-100,2013-09-14 01:52:00,
2013-09-13 21:57:00,56.7,53.0,29.36,North,360,4.2,7.0,88,0.00,,,0.37,Rainwise IP-100,2013-09-14 01:57:00,
2013-09-13 22:03:00,56.7,53.0,29.36,North,360,5.6,6.0,88,0.00,,,0.37,Rainwise IP-100,2013-09-14 02:03:00,
2013-09-13 22:08:00,56.7,53.0,29.36,NE,45,1.9,7.0,87,0.00,,,0.37,Rainwise IP-100,2013-09-14 02:08:00,
2013-09-13 22:13:00,56.7,53.0,29.36,NNE,22,2.6,8.0,87,0.00,,,0.37,Rainwise IP-100,2013-09-14 02:13:00,
2013-09-13 22:18:00,56.7,53.0,29.37,NNE,22,4.7,6.0,87,0.00,,,0.37,Rainwise IP-100,2013-09-14 02:18:00,
2013-09-13 22:23:00,56.6,53.0,29.37,NNE,22,4.4,7.0,87,0.00,,,0.37,Rainwise IP-100,2013-09-14 02:23:00,
2013-09-13 22:28:00,56.6,53.0,29.37,NE,45,1.6,7.0,87,0.00,,,0.37,Rainwise IP-100,2013-09-14 02:28:00,
2013-09-13 22:33:00,56.5,53.0,29.37,NNE,22,8.6,9.0,87,0.00,,,0.37,Rainwise IP-100,2013-09-14 02:33:00,
2013-09-13 22:38:00,56.5,53.0,29.37,NNE,22,6.3,8.0,87,0.00,,,0.37,Rainwise IP-100,2013-09-14 02:38:00,
2013-09-13 22:43:00,56.5,53.0,29.37,NNE,22,3.0,6.0,87,0.00,,,0.37,Rainwise IP-100,2013-09-14 02:43:00,
2013-09-13 22:48:00,56.4,53.0,29.37,NNW,337,3.0,7.0,87,0.00,,,0.37,Rainwise IP-100,2013-09-14 02:48:00,
2013-09-13 22:53:00,56.4,53.0,29.37,North,360,4.0,6.0,87,0.00,,,0.37,Rainwise IP-100,2013-09-14 02:53:00,
2013-09-13 22:58:00,56.4,53.0,29.36,NNE,22,4.0,5.0,87,0.00,,,0.37,Rainwise IP-100,2013-09-14 02:58:00,
2013-09-13 23:03:00,56.3,53.0,29.36,North,360,3.7,4.0,88,0.00,,,0.37,Rainwise IP-100,2013-09-14 03:03:00,
2013-09-13 23:08:00,56.2,53.0,29.36,North,360,6.1,6.1,88,0.00,,,0.37,Rainwise IP-100,2013-09-14 03:08:00,
2013-09-13 23:13:00,56.1,53.0,29.37,North,360,2.8,6.0,88,0.00,,,0.37,Rainwise IP-100,2013-09-14 03:13:00,
2013-09-13 23:19:00,56.2,52.0,29.37,North,360,0.0,6.0,87,0.00,,,0.37,Rainwise IP-100,2013-09-14 03:19:00,
2013-09-13 23:24:00,56.1,53.0,29.36,South,180,0.0,1.0,88,0.00,,,0.37,Rainwise IP-100,2013-09-14 03:24:00,
2013-09-13 23:29:00,55.8,53.0,29.36,South,180,0.0,0.0,90,0.00,,,0.37,Rainwise IP-100,2013-09-14 03:29:00,
2013-09-13 23:34:00,55.6,53.0,29.37,South,180,0.0,1.0,90,0.00,,,0.37,Rainwise IP-100,2013-09-14 03:34:00,
2013-09-13 23:39:00,55.5,53.0,29.36,South,180,0.0,0.0,91,0.00,,,0.37,Rainwise IP-100,2013-09-14 03:39:00,
2013-09-13 23:44:00,55.4,53.0,29.36,North,360,0.0,3.0,90,0.00,,,0.37,Rainwise IP-100,2013-09-14 03:44:00,
2013-09-13 23:49:00,55.4,53.0,29.36,WSW,247,1.4,1.4,91,0.00,,,0.37,Rainwise IP-100,2013-09-14 03:49:00,
2013-09-13 23:54:00,55.1,53.0,29.37,WSW,247,1.2,2.0,92,0.00,,,0.37,Rainwise IP-100,2013-09-14 03:54:00,
2013-09-13 23:59:00,54.9,53.0,29.36,WSW,247,0.0,1.0,92,0.00,,,0.37,Rainwise IP-100,2013-09-14 03:59:00,